Tracking 19846 objects as of 20-Sep-2019
HD Live streaming from Space Station
objects crossing your sky now

FENGYUN 1C DEB

Track FENGYUN 1C DEB now!
10-day predictions


NORAD ID: 30306
Int'l Code: 1999-025ZT
Perigee: 743.5 km
Apogee: 940.1 km
Inclination: 98.8 °
Period: 101.6 minutes
Semi major axis: 7212 km
RCS: 0.0194 m2 (small)
Launch date: May 10, 1999
Source: People's Republic of China (PRC)
Launch site: Taiyaun Space Center, China (TSC)

Note: This is SATELLITE DEBRIS
aabbcc
Your satellite tracking list
Your tracking list is empty




NASA's NSSDC Master Catalog

Two Line Element Set (TLE):
1 30306U 99025ZT  19262.61449502  .00000246  00000-0  13073-3 0  9997
2 30306  98.7928 310.3073 0136298  87.1091 274.5672 14.17263342653784
Source of the keplerian elements: AFSPC